FW1957 Weather Reports


Display with metric or nautical units.
time (UTC)temp
F
wind
direction
speed
MPH
gust
MPH
rain 1hr
in
rain 24hr
in
rain mn
in
humidity
%
barometer
mb
20260831230246 63 180 2.0 6.0 0.07 0.47 0.47 92 1017.8
20260831225711 63 182 3.0 6.0 0.08 0.47 0.47 92 1017.9
20260831224715 63 163 2.0 5.0 0.19 0.47 0.47 92 1018.2
20260831224211 63 144 3.0 5.0 0.20 0.46 0.46 92 1018.3
20260831223714 63 160 3.0 7.0 0.21 0.46 0.46 91 1018.3
20260831222711 63 124 4.0 9.0 0.24 0.45 0.45 91 1018.4
20260831222219 64 116 4.0 9.0 0.24 0.44 0.44 91 1018.7
20260831221717 64 77 4.0 10.0 0.23 0.43 0.43 91 1018.8
20260831221208 64 55 5.0 10.0 0.23 0.42 0.42 91 1019.0
20260831220207 64 344 4.0 14.0 0.24 0.39 0.39 90 1019.2
20260831215705 64 276 6.0 14.0 0.24 0.39 0.39 89 1019.2
20260831215215 64 247 8.0 13.0 0.18 0.33 0.33 89 1019.4
20260831214716 64 266 8.0 13.0 0.13 0.27 0.27 88 1019.2
20260831214219 65 261 8.0 13.0 0.13 0.26 0.26 88 1018.8
20260831213709 65 224 6.0 10.0 0.15 0.24 0.24 88 1018.7
20260831213215 66 210 5.0 10.0 0.17 0.22 0.22 88 1018.5
20260831212719 66 195 4.0 10.0 0.19 0.21 0.21 89 1018.5
20260831211720 66 198 5.0 16.0 0.20 0.19 0.19 88 1018.3
20260831211205 67 192 7.0 13.0 0.18 0.18 0.18 87 1018.4
20260831210706 67 200 7.0 12.0 0.17 0.17 0.17 86 1018.4
20260831210209 67 188 7.0 19.0 0.17 0.17 0.17 85 1018.5
20260831205711 68 162 8.0 21.0 0.16 0.16 0.16 83 1018.3
20260831205208 69 167 9.0 21.0 0.14 0.14 0.14 81 1018.2
20260831204707 70 194 8.0 21.0 0.13 0.13 0.13 77 1018.1
20260831204217 73 216 5.0 12.0 0.12 0.12 0.12 74 1018.2
20260831203211 74 289 3.0 9.0 0.06 0.06 0.03 68 1017.1
20260831202709 75 355 3.0 9.0 0.02 0.02 0.02 67 1016.8
20260831202210 75 305 3.0 9.0 0.01 0.01 0.01 63 1016.6
20260831201713 75 355 1.0 3.0 0.00 0.00 0.00 61 1016.2
20260831201219 75 50 1.0 3.0 0.00 0.00 0.00 57 1015.7
20260831200708 75 92 2.0 3.0 0.00 0.00 0.00 56 1015.4
20260831200207 75 94 1.0 3.0 0.00 0.00 0.00 56 1015.2
20260831195706 75 136 1.0 3.0 0.00 0.00 0.00 56 1015.2
20260831194711 76 109 1.0 3.0 0.00 0.00 0.00 55 1015.0
20260831194208 76 128 1.0 3.0 0.00 0.00 0.00 55 1015.0
20260831193716 76 133 1.0 3.0 0.00 0.00 0.00 55 1014.9
20260831193210 76 126 1.0 2.0 0.00 0.00 0.00 55 1014.8
20260831192716 76 340 0.0 3.0 0.00 0.00 0.00 54 1014.8
20260831192214 76 340 1.0 4.0 0.00 0.00 0.00 54 1014.7
20260831191714 76 339 1.0 4.0 0.00 0.00 0.00 54 1014.4
20260831190716 76 355 1.0 7.0 0.00 0.00 0.00 53 1014.2
20260831190240 77 9 2.0 7.0 0.00 0.00 0.00 53 1013.9
20260831185720 77 11 2.0 7.0 0.00 0.00 0.00 53 1013.7
20260831185205 77 300 2.0 5.0 0.00 0.00 0.00 52 1013.6
20260831184713 77 336 2.0 5.0 0.00 0.00 0.00 52 1013.4
20260831184214 77 329 2.0 6.0 0.00 0.00 0.00 52 1013.5
20260831183713 77 321 2.0 8.0 0.00 0.00 0.00 51 1013.5
20260831183216 77 302 3.0 10.0 0.00 0.00 0.00 52 1013.5
20260831182718 77 319 5.0 11.0 0.00 0.00 0.00 51 1013.4
20260831182207 77 321 6.0 11.0 0.00 0.00 0.00 51 1013.2
20260831181705 77 344 6.0 11.0 0.00 0.00 0.00 51 1013.1
20260831181216 78 313 5.0 10.0 0.00 0.00 0.00 51 1013.1
20260831180711 78 350 5.0 13.0 0.00 0.00 0.00 50 1013.0
20260831180209 78 329 6.0 13.0 0.00 0.00 0.00 50 1013.0
20260831175706 78 355 5.0 13.0 0.00 0.00 0.00 49 1013.0
20260831175220 78 31 4.0 9.0 0.00 0.00 0.00 49 1013.0
20260831174716 78 336 4.0 9.0 0.00 0.00 0.00 49 1013.0
20260831174218 78 346 4.0 12.0 0.00 0.00 0.00 48 1013.0
20260831173714 79 342 5.0 13.0 0.00 0.00 0.00 48 1013.0
20260831173219 79 10 6.0 14.0 0.00 0.00 0.00 48 1013.0
20260831172710 79 355 6.0 14.0 0.00 0.00 0.00 47 1013.1
20260831172215 79 342 7.0 14.0 0.00 0.00 0.00 47 1012.9
20260831171210 80 5 8.0 16.0 0.00 0.00 0.00 47 1012.7
20260831170719 80 320 8.0 16.0 0.00 0.00 0.00 47 1012.7
20260831170207 80 323 8.0 17.0 0.00 0.00 0.00 47 1012.7
20260831165710 80 0 9.0 18.0 0.00 0.00 0.00 47 1012.7
20260831165216 80 323 11.0 18.0 0.00 0.00 0.00 47 1012.7
20260831164714 80 0 11.0 19.0 0.00 0.00 0.00 47 1012.8
20260831164209 80 342 11.0 19.0 0.00 0.00 0.00 46 1012.9
20260831163209 80 355 10.0 18.0 0.00 0.00 0.00 47 1013.0
20260831162715 80 338 10.0 16.0 0.00 0.00 0.00 47 1013.0
20260831162215 81 339 9.0 17.0 0.00 0.00 0.00 47 1013.2
20260831161211 81 325 11.0 18.0 0.00 0.00 0.00 46 1013.1
20260831160719 82 316 11.0 19.0 0.00 0.00 0.00 45 1013.1
20260831155747 82 340 12.0 19.0 0.00 0.00 0.00 45 1013.1
20260831155243 83 316 11.0 17.0 0.00 0.00 0.00 44 1013.1
20260831154715 83 32 11.0 18.0 0.00 0.00 0.00 44 1013.2
20260831153216 83 331 12.0 21.0 0.00 0.00 0.00 44 1013.2
20260831152708 83 346 11.0 19.0 0.00 0.00 0.00 43 1013.1
20260831151218 83 344 9.0 19.0 0.00 0.00 0.00 44 1013.2
20260831150728 83 319 10.0 19.0 0.00 0.00 0.00 44 1013.2
20260831145234 83 333 9.0 20.0 0.00 0.00 0.00 44 1013.4
20260831144716 83 335 8.0 14.0 0.00 0.00 0.00 44 1013.4
20260831144215 84 344 8.0 14.0 0.00 0.00 0.00 44 1013.5
20260831143719 84 341 8.0 16.0 0.00 0.00 0.00 43 1013.5
20260831143209 84 327 9.0 16.0 0.00 0.00 0.00 44 1013.5
20260831142231 83 319 8.0 15.0 0.00 0.00 0.00 45 1013.6
20260831141707 83 310 7.0 12.0 0.00 0.00 0.00 46 1013.6
20260831141207 82 298 5.0 12.0 0.00 0.00 0.00 47 1013.7
20260831140718 82 329 6.0 13.0 0.00 0.00 0.00 47 1013.7
20260831140218 82 324 7.0 13.0 0.00 0.00 0.00 46 1013.9
20260831135706 82 331 7.0 13.0 0.00 0.00 0.00 48 1013.9
20260831135211 81 57 8.0 16.0 0.00 0.00 0.00 48 1013.9
20260831133710 82 336 9.0 17.0 0.00 0.00 0.00 46 1013.9
20260831133212 82 338 8.0 14.0 0.00 0.00 0.00 46 1013.9
20260831132718 82 5 8.0 14.0 0.00 0.00 0.00 46 1013.9
20260831132235 82 328 9.0 14.0 0.00 0.00 0.00 46 1014.1
20260831131735 81 355 8.0 14.0 0.00 0.00 0.00 46 1014.1
20260831131212 81 325 7.0 14.0 0.00 0.00 0.00 46 1014.2
20260831130707 81 331 7.0 15.0 0.00 0.00 0.00 45 1014.2
20260831130205 81 337 8.0 15.0 0.00 0.00 0.00 44 1014.2
20260831125705 81 331 8.0 15.0 0.00 0.00 0.00 43 1014.2
20260831124720 82 325 9.0 16.0 0.00 0.00 0.00 43 1014.3
20260831124212 82 336 10.0 16.0 0.00 0.00 0.00 42 1014.3
20260831122738 83 26 10.0 19.0 0.00 0.00 0.00 41 1014.2
20260831122210 83 355 12.0 17.0 0.00 0.00 0.00 42 1014.2
20260831121716 83 301 11.0 18.0 0.00 0.00 0.00 41 1014.2
20260831121213 83 302 11.0 18.0 0.00 0.00 0.00 41 1014.3
20260831120216 83 316 11.0 19.0 0.00 0.00 0.00 41 1014.3
20260831115715 84 301 11.0 19.0 0.00 0.00 0.00 41 1014.3
20260831115210 84 340 11.0 17.0 0.00 0.00 0.00 39 1014.3
20260831114725 85 275 10.0 17.0 0.00 0.00 0.00 39 1014.3
20260831114210 86 319 10.0 19.0 0.00 0.00 0.00 39 1014.3
20260831113711 86 283 10.0 20.0 0.00 0.00 0.00 38 1014.3
20260831113208 86 300 12.0 22.0 0.00 0.00 0.00 40 1014.3
20260831112705 86 303 13.0 22.0 0.00 0.00 0.00 38 1014.2
20260831112207 86 309 13.0 21.0 0.00 0.00 0.00 37 1014.3
20260831111717 86 295 12.0 21.0 0.00 0.00 0.00 38 1014.2
20260831111218 86 283 12.0 21.0 0.00 0.00 0.00 38 1014.2
20260831105709 85 298 11.0 22.0 0.00 0.00 0.00 40 1013.9
20260831105217 85 296 10.0 19.0 0.00 0.00 0.00 43 1014.0
20260831104214 84 327 12.0 22.0 0.00 0.00 0.00 43 1013.9
20260831103709 84 344 13.0 22.0 0.00 0.00 0.00 42 1013.9
20260831103212 85 26 12.0 22.0 0.00 0.00 0.00 42 1013.7
20260831102718 85 340 11.0 20.0 0.00 0.00 0.00 42 1013.6
20260831102241 86 37 11.0 20.0 0.00 0.00 0.00 42 1013.5
20260831101717 86 5 11.0 14.0 0.00 0.00 0.00 43 1013.5
20260831101219 87 339 7.0 14.0 0.00 0.00 0.00 45 1013.5
20260831100717 86 26 7.0 13.0 0.00 0.00 0.00 44 1013.5
20260831100206 86 329 7.0 15.0 0.00 0.00 0.00 44 1013.4
20260831095708 86 340 8.0 17.0 0.00 0.00 0.00 43 1013.5
20260831095214 85 295 9.0 17.0 0.00 0.00 0.00 44 1013.5
20260831094717 85 252 10.0 17.0 0.00 0.00 0.00 44 1013.5
20260831094206 85 255 8.0 17.0 0.00 0.00 0.00 45 1013.6
20260831093737 84 242 4.0 11.0 0.00 0.00 0.00 48 1013.7
20260831093220 84 219 4.0 11.0 0.00 0.00 0.00 47 1013.7
20260831092718 83 339 3.0 8.0 0.00 0.00 0.00 48 1013.7
20260831092206 83 54 2.0 8.0 0.00 0.00 0.00 50 1013.9
20260831091724 83 348 2.0 8.0 0.00 0.00 0.00 49 1013.9
20260831091006 82 57 4.0 9.0 0.00 0.00 0.00 51 1014.1
20260831090218 81 318 5.0 9.0 0.00 0.00 0.00 53 1014.2
20260831085705 80 64 4.0 8.0 0.00 0.00 0.00 53 1014.2
20260831085208 80 51 3.0 8.0 0.00 0.00 0.00 55 1014.2
20260831084714 79 355 4.0 8.0 0.00 0.00 0.00 54 1014.2
20260831084217 79 44 4.0 8.0 0.00 0.00 0.00 55 1014.1
20260831083713 79 345 3.0 6.0 0.00 0.00 0.00 57 1014.1
20260831083218 78 19 2.0 7.0 0.00 0.00 0.00 55 1013.9
20260831082708 78 53 3.0 7.0 0.00 0.00 0.00 55 1014.0
20260831082213 78 14 4.0 7.0 0.00 0.00 0.00 55 1014.0
20260831081705 78 32 4.0 6.0 0.00 0.00 0.00 55 1013.9
20260831080709 78 25 2.0 7.0 0.00 0.00 0.00 55 1013.6
20260831080219 78 51 3.0 7.0 0.00 0.00 0.00 55 1013.5
20260831074711 77 78 2.0 6.0 0.00 0.00 0.00 56 1013.4
20260831074219 77 65 3.0 6.0 0.00 0.00 0.00 56 1013.4
20260831073712 77 27 3.0 6.0 0.00 0.00 0.00 57 1013.4
20260831073212 76 355 3.0 6.0 0.00 0.00 0.00 57 1013.4
20260831072717 76 38 4.0 6.0 0.00 0.00 0.00 57 1013.4
20260831072209 76 71 3.0 6.0 0.00 0.00 0.00 58 1013.4
20260831071709 76 63 3.0 7.0 0.00 0.00 0.00 60 1013.4
20260831071210 75 84 3.0 8.0 0.00 0.00 0.00 60 1013.4
20260831070706 74 46 4.0 8.0 0.00 0.00 0.00 61 1013.4
20260831070208 74 348 4.0 8.0 0.00 0.00 0.00 61 1013.3
20260831065709 73 25 4.0 8.0 0.00 0.00 0.00 64 1013.3
20260831065207 72 345 3.0 8.0 0.00 0.00 0.00 64 1013.3
20260831064707 71 13 3.0 8.0 0.00 0.00 0.00 66 1013.3
20260831064211 71 24 4.0 7.0 0.00 0.00 0.00 67 1013.3
20260831063713 70 338 4.0 7.0 0.00 0.00 0.00 67 1013.2
20260831063215 69 329 3.0 4.0 0.00 0.00 0.00 69 1013.2
20260831062719 69 25 2.0 4.0 0.00 0.00 0.00 71 1013.1
20260831062212 68 38 1.0 4.0 0.00 0.00 0.00 71 1013.0
20260831061709 67 5 1.0 3.0 0.00 0.00 0.00 71 1013.1
20260831061207 67 266 1.0 3.0 0.00 0.00 0.00 72 1013.0
20260831060719 67 266 2.0 4.0 0.00 0.00 0.00 73 1013.1
20260831060207 66 249 2.0 4.0 0.00 0.00 0.00 74 1013.0
20260831055732 65 209 1.0 4.0 0.00 0.00 0.00 75 1012.9
20260831055210 65 165 1.0 2.0 0.00 0.00 0.00 76 1012.9
20260831054242 64 290 0.0 2.0 0.00 0.00 0.00 76 1012.9
20260831053718 64 290 0.0 5.0 0.00 0.00 0.00 76 1012.9
20260831053214 64 290 2.0 5.0 0.00 0.00 0.00 78 1012.9
20260831052736 63 288 2.0 5.0 0.00 0.00 0.00 78 1012.9
20260831052214 63 261 2.0 4.0 0.00 0.00 0.00 79 1012.9
20260831051214 62 271 0.0 3.0 0.00 0.00 0.00 78 1012.7
20260831050707 62 271 1.0 4.0 0.00 0.00 0.00 79 1012.8
20260831045712 62 271 2.0 4.0 0.00 0.00 0.00 79 1012.9
20260831045213 62 268 0.0 2.0 0.00 0.00 0.00 78 1012.8
20260831044729 62 318 0.0 2.0 0.00 0.00 0.00 78 1012.8
20260831043706 61 319 1.0 3.0 0.00 0.00 0.00 78 1012.8
20260831043216 61 313 1.0 5.0 0.00 0.00 0.00 78 1012.8
20260831042216 61 255 3.0 5.0 0.00 0.00 0.00 79 1012.8
20260831041719 61 254 3.0 6.0 0.00 0.00 0.00 79 1012.7
20260831040743 61 252 4.0 6.0 0.00 0.00 0.00 79 1012.6
20260831040212 61 256 3.0 6.0 0.00 0.00 0.00 79 1012.6
20260831034216 61 263 3.0 4.0 0.00 0.00 0.00 78 1012.4
20260831033205 61 250 3.0 4.0 0.00 0.00 0.00 77 1012.5
20260831032719 61 267 3.0 4.0 0.00 0.00 0.00 77 1012.5
20260831032219 61 267 3.0 2.0 0.00 0.00 0.00 77 1012.5
20260831031212 62 278 0.0 3.0 0.00 0.00 0.00 76 1012.5
20260831030714 62 278 0.0 3.0 0.00 0.00 0.00 76 1012.6
20260831030209 62 278 1.0 3.0 0.00 0.00 0.00 76 1012.6
20260831025716 62 278 2.0 3.0 0.00 0.00 0.00 76 1012.6
20260831024718 62 303 1.0 3.0 0.00 0.00 0.00 76 1012.6
20260831024233 62 303 1.0 3.0 0.00 0.00 0.00 75 1012.6
20260831023213 62 309 1.0 2.0 0.00 0.00 0.00 75 1012.6
20260831022717 62 309 2.0 2.0 0.00 0.00 0.00 75 1012.7
20260831022215 63 276 2.0 3.0 0.00 0.00 0.00 75 1012.8
20260831021717 63 290 2.0 4.0 0.00 0.00 0.00 75 1012.8
20260831021209 63 282 2.0 4.0 0.00 0.00 0.00 75 1012.9
20260831020216 63 271 2.0 4.0 0.00 0.00 0.00 74 1012.8
20260831015706 63 262 2.0 4.0 0.00 0.00 0.00 74 1012.8
20260831015207 63 254 2.0 4.0 0.00 0.00 0.00 74 1012.8
20260831014713 63 262 2.0 4.0 0.00 0.00 0.00 74 1012.8
20260831014210 63 245 3.0 4.0 0.00 0.00 0.00 74 1012.9
20260831013709 63 239 2.0 4.0 0.00 0.00 0.00 74 1012.9
20260831013218 63 233 1.0 3.0 0.00 0.00 0.00 74 1013.0
20260831011710 64 237 3.0 6.0 0.00 0.00 0.00 74 1012.9
20260831011210 64 249 3.0 6.0 0.00 0.00 0.00 74 1012.9
20260831010710 64 265 3.0 7.0 0.00 0.00 0.00 74 1012.9
20260831004705 64 261 4.0 7.0 0.00 0.00 0.00 73 1013.1
20260831004205 64 276 4.0 6.0 0.00 0.00 0.00 73 1013.1
20260831003708 65 267 4.0 6.0 0.00 0.00 0.00 72 1013.1
20260831002721 65 254 3.0 6.0 0.00 0.00 0.00 70 1013.2
20260831002217 65 261 3.0 4.0 0.00 0.00 0.00 70 1013.3
20260831001709 66 243 2.0 4.0 0.00 0.00 0.00 70 1013.3
20260831001235 66 246 1.0 2.0 0.00 0.00 0.00 70 1013.3
20260831000715 66 261 1.0 2.0 0.00 0.00 0.00 69 1013.3
20260831000244 67 261 0.0 2.0 0.00 0.00 0.00 69 1013.3
20260830235708 67 261 1.0 2.0 0.00 0.00 0.00 68 1013.3
20260830235210 67 261 1.0 2.0 0.00 0.00 0.00 67 1013.3
20260830234707 67 261 0.0 2.0 0.00 0.00 0.00 68 1013.4
20260830234209 67 261 0.0 2.0 0.00 0.00 0.00 68 1013.4
20260830233715 67 261 0.0 1.0 0.00 0.00 0.00 67 1013.4
20260830233210 67 261 0.0 2.0 0.00 0.00 0.00 67 1013.4
20260830232706 67 261 0.0 2.0 0.00 0.00 0.00 66 1013.4
20260830232208 67 261 0.0 2.0 0.00 0.00 0.00 66 1013.4
20260830231711 67 261 0.0 2.0 0.00 0.00 0.00 66 1013.4
20260830231213 67 261 1.0 3.0 0.00 0.00 0.00 66 1013.3